AFR6732 LFPG-KORD

Flight info

Callsign AFR6732
Flight time N/A
Altitude 36000
Route ELCOB UT300 RUBIX DCT SENLO DCT JSY DCT LIZAD DCT LESLU DCT MALOT/M086F370 DCT 54N020W 54N030W 54N040W 53N050W DCT RIKAL/N0487F380 N576B ANATI DCT KAPUX DCT HOCKE DCT FNT WYNDE2
Aircraft B789/H-SDE1E2E3FGHIJ2J3J4J5M1RWXY/LB1D1

Departure

Time N/A
Airport Charles de Gaulle International Airport (LFPG)

Arrival

Time 2026-05-06 02:56
Airport Chicago O'Hare International Airport (KORD)
Time Latitude Longitude Altitude Speed Heading
2026-05-06 02:07 43.17873 -83.00741 41855 ft 414 kts 253°
2026-05-06 02:07 43.15811 -83.08034 41852 ft 413 kts 253°
2026-05-06 02:08 43.13731 -83.15366 41856 ft 413 kts 253°
2026-05-06 02:08 43.11642 -83.22710 41861 ft 414 kts 253°
2026-05-06 02:09 43.09547 -83.30051 41859 ft 414 kts 253°
2026-05-06 02:09 43.07450 -83.37381 41869 ft 414 kts 253°
2026-05-06 02:10 43.05350 -83.44699 41862 ft 413 kts 253°
2026-05-06 02:10 43.03249 -83.51997 41857 ft 412 kts 253°
2026-05-06 02:11 43.01144 -83.59289 41854 ft 413 kts 253°
2026-05-06 02:11 42.99072 -83.66448 41857 ft 412 kts 253°
2026-05-06 02:12 42.97040 -83.73838 41878 ft 409 kts 258°
2026-05-06 02:12 42.96044 -83.81428 41872 ft 406 kts 265°
2026-05-06 02:13 42.95299 -83.89067 41868 ft 406 kts 265°
2026-05-06 02:13 42.94570 -83.96660 41875 ft 405 kts 265°
2026-05-06 02:14 42.93827 -84.04282 41875 ft 405 kts 264°
2026-05-06 02:14 42.93081 -84.11900 41874 ft 405 kts 264°
2026-05-06 02:15 42.92334 -84.19464 41875 ft 405 kts 264°
2026-05-06 02:15 42.91577 -84.27077 41880 ft 405 kts 264°
2026-05-06 02:16 42.90817 -84.34677 41884 ft 406 kts 264°
2026-05-06 02:16 42.90047 -84.42316 41888 ft 407 kts 264°
2026-05-06 02:17 42.89272 -84.49955 41886 ft 407 kts 264°
2026-05-06 02:17 42.88494 -84.57579 41886 ft 406 kts 264°
2026-05-06 02:18 42.87711 -84.65196 41884 ft 405 kts 264°
2026-05-06 02:18 42.86929 -84.72771 41882 ft 404 kts 264°
2026-05-06 02:19 42.86141 -84.80344 41878 ft 404 kts 264°
2026-05-06 02:19 42.85347 -84.87926 41879 ft 405 kts 264°
2026-05-06 02:20 42.84145 -84.99302 41876 ft 404 kts 264°
2026-05-06 02:21 42.83338 -85.06865 41874 ft 403 kts 264°
2026-05-06 02:21 42.82536 -85.14336 41881 ft 404 kts 264°
2026-05-06 02:22 42.81723 -85.21867 41881 ft 404 kts 264°
2026-05-06 02:22 42.80901 -85.29433 41880 ft 404 kts 263°
2026-05-06 02:23 42.80075 -85.36986 41881 ft 403 kts 263°
2026-05-06 02:23 42.79245 -85.44528 41882 ft 403 kts 263°
2026-05-06 02:24 42.78253 -85.52032 41898 ft 404 kts 259°
2026-05-06 02:24 42.77001 -85.59063 41898 ft 406 kts 259°
2026-05-06 02:25 42.75661 -85.66531 41898 ft 406 kts 259°
2026-05-06 02:25 42.74355 -85.73768 41898 ft 406 kts 259°
2026-05-06 02:26 42.73012 -85.81200 41906 ft 406 kts 259°
2026-05-06 02:26 42.71690 -85.88477 41903 ft 406 kts 259°
2026-05-06 02:27 42.70340 -85.95875 41858 ft 400 kts 259°
2026-05-06 02:27 42.69670 -85.99541 41738 ft 399 kts 259°
2026-05-06 02:27 42.69000 -86.03199 41610 ft 398 kts 259°
2026-05-06 02:27 42.68331 -86.06846 41503 ft 397 kts 259°
2026-05-06 02:28 42.67660 -86.10488 41380 ft 397 kts 259°
2026-05-06 02:28 42.66992 -86.14117 41236 ft 395 kts 259°
2026-05-06 02:28 42.66322 -86.17744 40619 ft 395 kts 259°
2026-05-06 02:28 42.65668 -86.21259 40132 ft 371 kts 259°
2026-05-06 02:29 42.65049 -86.24588 39714 ft 361 kts 259°
2026-05-06 02:29 42.64432 -86.27949 39259 ft 369 kts 259°
2026-05-06 02:29 42.63804 -86.31334 38787 ft 373 kts 259°
2026-05-06 02:29 42.63164 -86.34755 38284 ft 374 kts 259°
2026-05-06 02:30 42.62527 -86.38160 37793 ft 370 kts 259°
2026-05-06 02:30 42.61896 -86.41541 37318 ft 368 kts 259°
2026-05-06 02:30 42.61268 -86.44898 36822 ft 367 kts 258°
2026-05-06 02:30 42.60639 -86.48257 36306 ft 367 kts 258°
2026-05-06 02:31 42.60006 -86.51623 35797 ft 369 kts 258°
2026-05-06 02:31 42.59371 -86.54995 35278 ft 369 kts 258°
2026-05-06 02:31 42.58735 -86.58369 34742 ft 369 kts 258°
2026-05-06 02:32 42.58467 -86.59785 34510 ft 369 kts 257°
2026-05-06 02:32 42.57829 -86.63164 33943 ft 370 kts 257°
2026-05-06 02:32 42.57190 -86.66539 33358 ft 369 kts 257°
2026-05-06 02:32 42.56548 -86.69926 32765 ft 374 kts 256°
2026-05-06 02:33 42.55829 -86.73277 32180 ft 380 kts 252°
2026-05-06 02:33 42.55222 -86.75514 31738 ft 383 kts 251°
2026-05-06 02:33 42.53063 -86.83533 30184 ft 392 kts 250°
2026-05-06 02:34 42.52118 -86.87011 29433 ft 394 kts 249°
2026-05-06 02:34 42.51170 -86.90489 28722 ft 391 kts 249°
2026-05-06 02:34 42.50240 -86.93915 28024 ft 384 kts 249°
2026-05-06 02:34 42.49324 -86.97288 27350 ft 380 kts 249°
2026-05-06 02:35 42.48408 -87.00650 26684 ft 381 kts 249°
2026-05-06 02:35 42.47486 -87.04029 26019 ft 384 kts 250°
2026-05-06 02:35 42.46562 -87.07408 25340 ft 381 kts 250°
2026-05-06 02:35 42.45649 -87.10747 24679 ft 376 kts 250°
2026-05-06 02:36 42.44744 -87.14052 24027 ft 374 kts 250°
2026-05-06 02:36 42.43839 -87.17354 23349 ft 375 kts 250°
2026-05-06 02:36 42.42930 -87.20665 22679 ft 375 kts 250°
2026-05-06 02:36 42.42022 -87.23968 22030 ft 373 kts 250°
2026-05-06 02:37 42.41125 -87.27225 21381 ft 366 kts 250°
2026-05-06 02:37 42.40241 -87.30433 20749 ft 362 kts 250°
2026-05-06 02:37 42.39361 -87.33623 20123 ft 363 kts 250°
2026-05-06 02:37 42.38476 -87.36826 19495 ft 364 kts 250°
2026-05-06 02:38 42.37591 -87.40020 18865 ft 360 kts 250°
2026-05-06 02:38 42.36721 -87.43160 18257 ft 355 kts 250°
2026-05-06 02:38 42.35855 -87.46284 17604 ft 354 kts 250°
2026-05-06 02:38 42.34961 -87.49389 17008 ft 354 kts 247°
2026-05-06 02:39 42.33746 -87.52299 16397 ft 357 kts 239°
2026-05-06 02:39 42.32205 -87.54900 15790 ft 353 kts 230°
2026-05-06 02:39 42.30378 -87.57129 15198 ft 356 kts 223°
2026-05-06 02:39 42.28424 -87.59201 14594 ft 358 kts 223°
2026-05-06 02:40 42.26465 -87.61288 13978 ft 356 kts 223°
2026-05-06 02:40 42.24524 -87.63329 13341 ft 352 kts 222°
2026-05-06 02:40 42.22595 -87.65348 12751 ft 351 kts 222°
2026-05-06 02:40 42.20672 -87.67368 12148 ft 347 kts 222°
2026-05-06 02:41 42.18844 -87.69288 11582 ft 339 kts 222°
2026-05-06 02:41 42.17006 -87.71217 11074 ft 329 kts 221°
2026-05-06 02:41 42.15264 -87.73039 10878 ft 312 kts 221°
2026-05-06 02:41 42.13602 -87.74777 10768 ft 293 kts 222°
2026-05-06 02:42 42.12043 -87.76409 10654 ft 276 kts 222°
2026-05-06 02:42 42.10628 -87.78036 10291 ft 264 kts 233°
2026-05-06 02:42 42.09657 -87.80129 9611 ft 266 kts 249°
2026-05-06 02:42 42.09209 -87.82518 9153 ft 260 kts 265°
2026-05-06 02:43 42.09192 -87.84906 8857 ft 250 kts 269°
2026-05-06 02:43 42.09183 -87.87205 8596 ft 241 kts 269°
2026-05-06 02:43 42.09183 -87.89471 8366 ft 244 kts 270°
2026-05-06 02:43 42.09185 -87.91712 8220 ft 245 kts 270°
2026-05-06 02:44 42.09186 -87.94027 8038 ft 247 kts 270°
2026-05-06 02:44 42.09186 -87.96319 7774 ft 245 kts 270°
2026-05-06 02:44 42.09185 -87.98636 7524 ft 249 kts 271°
2026-05-06 02:44 42.09183 -88.00899 7316 ft 231 kts 271°
2026-05-06 02:45 42.09181 -88.02998 7084 ft 219 kts 271°
2026-05-06 02:45 42.09177 -88.04994 6862 ft 208 kts 271°
2026-05-06 02:45 42.09171 -88.06904 6646 ft 200 kts 272°
2026-05-06 02:45 42.09166 -88.08733 6471 ft 191 kts 272°
2026-05-06 02:46 42.09161 -88.10525 6303 ft 193 kts 273°
2026-05-06 02:46 42.09157 -88.12351 6103 ft 195 kts 273°
2026-05-06 02:46 42.09153 -88.13559 5993 ft 195 kts 273°
2026-05-06 02:46 42.09144 -88.15969 5746 ft 189 kts 273°
2026-05-06 02:47 42.09138 -88.17761 5546 ft 193 kts 273°
2026-05-06 02:47 42.09134 -88.18957 5439 ft 193 kts 273°
2026-05-06 02:47 42.09126 -88.20765 5254 ft 191 kts 273°
2026-05-06 02:47 42.09119 -88.22509 5084 ft 188 kts 273°
2026-05-06 02:48 42.09032 -88.24283 4865 ft 195 kts 258°
2026-05-06 02:48 42.08246 -88.25768 4655 ft 196 kts 224°
2026-05-06 02:48 42.06954 -88.26433 4461 ft 207 kts 185°
2026-05-06 02:48 42.05542 -88.26061 4326 ft 205 kts 162°
2026-05-06 02:49 42.04242 -88.25479 4199 ft 189 kts 162°
2026-05-06 02:49 42.03035 -88.24949 4043 ft 177 kts 162°
2026-05-06 02:49 42.01841 -88.24441 3898 ft 183 kts 163°
2026-05-06 02:49 42.00627 -88.23925 3741 ft 184 kts 163°
2026-05-06 02:50 41.99442 -88.23298 3539 ft 184 kts 147°
2026-05-06 02:50 41.98838 -88.21933 3295 ft 163 kts 91°
2026-05-06 02:50 41.98928 -88.20514 3208 ft 154 kts 82°
2026-05-06 02:50 41.98826 -88.19026 3175 ft 160 kts 87°
2026-05-06 02:51 41.98840 -88.17522 3164 ft 162 kts 84°
2026-05-06 02:51 41.98841 -88.16009 3123 ft 163 kts 85°
2026-05-06 02:51 41.98838 -88.14538 2996 ft 150 kts 84°
2026-05-06 02:51 41.98840 -88.13081 2920 ft 161 kts 84°
2026-05-06 02:52 41.98841 -88.11923 2840 ft 161 kts 85°
2026-05-06 02:52 41.98839 -88.10409 2730 ft 163 kts 84°
2026-05-06 02:52 41.98840 -88.09899 2692 ft 160 kts 84°
2026-05-06 02:52 41.98835 -88.08482 2559 ft 151 kts 84°
2026-05-06 02:53 41.98840 -88.07006 2484 ft 160 kts 84°
2026-05-06 02:53 41.98831 -88.05511 2381 ft 162 kts 85°
2026-05-06 02:53 41.98829 -88.04038 2261 ft 149 kts 84°
2026-05-06 02:53 41.98829 -88.02607 2089 ft 158 kts 84°
2026-05-06 02:54 41.98830 -88.01144 1873 ft 154 kts 84°
2026-05-06 02:54 41.98831 -87.99698 1666 ft 155 kts 85°
2026-05-06 02:54 41.98835 -87.98273 1455 ft 149 kts 88°
2026-05-06 02:54 41.98829 -87.96904 1289 ft 149 kts 89°
2026-05-06 02:55 41.98829 -87.95667 1114 ft 153 kts 87°
2026-05-06 02:55 41.98833 -87.94232 847 ft 154 kts 88°
2026-05-06 02:55 41.98833 -87.92825 688 ft 149 kts 88°
2026-05-06 02:55 41.98829 -87.91752 672 ft 72 kts 90°
2026-05-06 02:56 41.98829 -87.91413 669 ft 53 kts 90°
2026-05-06 02:56 41.98779 -87.91057 672 ft 45 kts 122°
2026-05-06 02:56 41.98683 -87.90916 671 ft 11 kts 105°
2026-05-06 02:56 41.98618 -87.90860 671 ft 12 kts 169°
2026-05-06 02:57 41.98560 -87.90878 669 ft 4 kts 180°
2026-05-06 02:57 41.98506 -87.90867 667 ft 11 kts 172°
2026-05-06 02:57 41.98434 -87.90859 665 ft 9 kts 179°
2026-05-06 02:57 41.98382 -87.90860 659 ft 6 kts 181°
2026-05-06 02:58 41.98365 -87.90862 672 ft 1 kts 193°
2026-05-06 02:58 41.98342 -87.90873 666 ft 5 kts 202°
2026-05-06 02:58 41.98297 -87.90879 668 ft 11 kts 171°
2026-05-06 02:58 41.98237 -87.90866 668 ft 5 kts 157°
2026-05-06 02:59 41.98217 -87.90824 668 ft 13 kts 111°
2026-05-06 02:59 41.98182 -87.90694 667 ft 9 kts 96°
2026-05-06 02:59 41.98179 -87.90683 667 ft 0 kts 114°